• In Hungary
  • List of Countries
  • For 7 days
  • Water Temperature
  • Satellite Maps
  • Weather Map
  • News
  • Weather Widgets
  • user-avatar
    Login

    Hourly Weather Nova Londrina

    Today, 13 November, Tuesday

    Time Temperature Precipitation Wind Pressure Humidity
    00:00 +28°C° 0 mm 3 mps 727 mmHg 68%
    01:00 +28°C° 0 mm 3 mps 727 mmHg 69%
    02:00 +27°C° 0 mm 3 mps 727 mmHg 70%
    03:00 +27°C° 0 mm 3 mps 727 mmHg 72%
    04:00 +27°C° 0 mm 3 mps 728 mmHg 73%
    05:00 +26°C° 0 mm 3 mps 728 mmHg 74%
    06:00 +28°C° 0 mm 4 mps 729 mmHg 71%
    07:00 +30°C° 0 mm 4 mps 729 mmHg 67%
    08:00 +32°C° 0 mm 4 mps 730 mmHg 63%
    09:00 +34°C° 0 mm 4 mps 730 mmHg 58%
    10:00 +35°C° 0 mm 4 mps 730 mmHg 53%
    11:00 +37°C° 0 mm 4 mps 729 mmHg 48%
    12:00 +37°C° 0 mm 4 mps 729 mmHg 48%
    13:00 +37°C° 0 mm 3 mps 728 mmHg 48%
    14:00 +37°C° 0 mm 3 mps 727 mmHg 47%
    15:00 +36°C° 0 mm 3 mps 727 mmHg 51%
    16:00 +35°C° 0 mm 2 mps 727 mmHg 54%
    17:00 +35°C° 0 mm 2 mps 727 mmHg 58%
    18:00 +32°C° 0 mm 2 mps 727 mmHg 59%
    19:00 +31°C° 0 mm 2 mps 727 mmHg 60%
    20:00 +30°C° 0 mm 2 mps 728 mmHg 61%
    21:00 +29°C° 0 mm 2 mps 728 mmHg 62%
    22:00 +29°C° 0 mm 2 mps 728 mmHg 63%
    23:00 +29°C° 0 mm 2 mps 728 mmHg 63%

    Tomorrow, 14 November, Wednesday

    Time Temperature Precipitation Wind Pressure Humidity
    00:00 +28°C° 0 mm 2 mps 727 mmHg 65%
    01:00 +28°C° 0 mm 2 mps 727 mmHg 66%
    02:00 +27°C° 0 mm 2 mps 726 mmHg 68%
    03:00 +27°C° 0 mm 2 mps 727 mmHg 71%
    04:00 +27°C° 0 mm 2 mps 727 mmHg 73%
    05:00 +26°C° 0 mm 2 mps 727 mmHg 76%
    06:00 +28°C° 0 mm 3 mps 727 mmHg 71%
    07:00 +30°C° 0 mm 3 mps 728 mmHg 66%
    08:00 +33°C° 0 mm 3 mps 729 mmHg 61%
    09:00 +35°C° 0.1 mm 3 mps 729 mmHg 56%
    10:00 +36°C° 0.1 mm 3 mps 729 mmHg 52%
    11:00 +37°C° 0.1 mm 3 mps 729 mmHg 47%
    12:00 +36°C° 0.4 mm 3 mps 728 mmHg 53%
    13:00 +34°C° 0.4 mm 4 mps 727 mmHg 60%
    14:00 +33°C° 0.4 mm 4 mps 727 mmHg 66%
    15:00 +31°C° 0.1 mm 3 mps 727 mmHg 68%
    16:00 +31°C° 0.1 mm 3 mps 726 mmHg 70%
    17:00 +31°C° 0.1 mm 2 mps 726 mmHg 72%
    18:00 +30°C° 0.3 mm 2 mps 727 mmHg 75%
    19:00 +29°C° 0.3 mm 1 mps 727 mmHg 77%
    20:00 +28°C° 0.3 mm 1 mps 727 mmHg 80%
    21:00 +28°C° 0 mm 1 mps 727 mmHg 81%
    22:00 +27°C° 0 mm 1 mps 728 mmHg 82%
    23:00 +27°C° 0 mm 1 mps 728 mmHg 83%

    Day after tomorrow, 15 November, Thursday

    Time Temperature Precipitation Wind Pressure Humidity
    00:00 +27°C° 0.2 mm 1 mps 727 mmHg 84%
    01:00 +26°C° 0.2 mm 1 mps 727 mmHg 86%
    02:00 +26°C° 0.2 mm 1 mps 726 mmHg 87%
    03:00 +26°C° 0 mm 1 mps 726 mmHg 88%
    04:00 +26°C° 0 mm 1 mps 727 mmHg 88%
    05:00 +26°C° 0 mm 1 mps 727 mmHg 89%
    06:00 +27°C° 0 mm 1 mps 727 mmHg 83%
    07:00 +29°C° 0 mm 1 mps 728 mmHg 77%
    08:00 +30°C° 0 mm 1 mps 728 mmHg 72%
    09:00 +32°C° 0.4 mm 1 mps 728 mmHg 66%
    10:00 +33°C° 0.4 mm 1 mps 728 mmHg 60%
    11:00 +35°C° 0.4 mm 1 mps 728 mmHg 54%
    12:00 +36°C° 0.7 mm 2 mps 727 mmHg 52%
    13:00 +36°C° 0.7 mm 2 mps 726 mmHg 51%
    14:00 +37°C° 0.7 mm 2 mps 726 mmHg 49%
    15:00 +35°C° 0.7 mm 2 mps 726 mmHg 55%
    16:00 +34°C° 0.7 mm 2 mps 726 mmHg 61%
    17:00 +32°C° 0.7 mm 2 mps 726 mmHg 67%
    18:00 +30°C° 3.1 mm 3 mps 726 mmHg 74%
    19:00 +28°C° 3.1 mm 3 mps 727 mmHg 81%
    20:00 +27°C° 3.1 mm 3 mps 727 mmHg 89%
    21:00 +27°C° 0.9 mm 3 mps 728 mmHg 89%
    22:00 +26°C° 0.9 mm 2 mps 728 mmHg 90%
    23:00 +26°C° 0.9 mm 2 mps 728 mmHg 91%

    16 November, Friday

    Time Temperature Precipitation Wind Pressure Humidity
    00:00 +26°C° 0.4 mm 2 mps 728 mmHg 92%
    01:00 +26°C° 0.4 mm 2 mps 728 mmHg 92%
    02:00 +26°C° 0.4 mm 3 mps 727 mmHg 93%
    03:00 +25°C° 0.1 mm 3 mps 728 mmHg 93%
    04:00 +25°C° 0.1 mm 4 mps 728 mmHg 94%
    05:00 +25°C° 0.1 mm 4 mps 728 mmHg 94%
    06:00 +25°C° 0 mm 4 mps 729 mmHg 90%
    07:00 +26°C° 0 mm 4 mps 729 mmHg 87%
    08:00 +27°C° 0 mm 4 mps 730 mmHg 83%
    09:00 +28°C° 1.5 mm 4 mps 730 mmHg 81%
    10:00 +29°C° 1.5 mm 4 mps 730 mmHg 78%
    11:00 +30°C° 1.5 mm 3 mps 729 mmHg 75%
    12:00 +31°C° 0.7 mm 3 mps 729 mmHg 73%
    13:00 +31°C° 0.7 mm 3 mps 729 mmHg 70%
    14:00 +31°C° 0.7 mm 2 mps 728 mmHg 67%
    15:00 +30°C° 0.3 mm 2 mps 728 mmHg 71%
    16:00 +30°C° 0.3 mm 1 mps 728 mmHg 76%
    17:00 +29°C° 0.3 mm 1 mps 728 mmHg 80%
    18:00 +28°C° 0 mm 1 mps 728 mmHg 81%
    19:00 +28°C° 0 mm 1 mps 729 mmHg 82%
    20:00 +27°C° 0 mm 1 mps 729 mmHg 82%
    21:00 +27°C° 0 mm 1 mps 729 mmHg 83%
    22:00 +26°C° 0 mm 1 mps 729 mmHg 84%
    23:00 +26°C° 0 mm 2 mps 729 mmHg 84%

    17 November, Saturday

    Time Temperature Precipitation Wind Pressure Humidity
    00:00 +26°C° 0 mm 2 mps 728 mmHg 85%
    01:00 +25°C° 0 mm 3 mps 728 mmHg 85%
    02:00 +25°C° 0 mm 3 mps 728 mmHg 86%
    03:00 +24°C° 0 mm 3 mps 728 mmHg 86%
    04:00 +24°C° 0 mm 3 mps 728 mmHg 86%
    05:00 +23°C° 0 mm 4 mps 728 mmHg 86%
    06:00 +25°C° 0 mm 4 mps 729 mmHg 82%
    07:00 +26°C° 0 mm 4 mps 729 mmHg 78%
    08:00 +27°C° 0 mm 5 mps 730 mmHg 74%
    09:00 +29°C° 0 mm 4 mps 730 mmHg 70%
    10:00 +30°C° 0 mm 4 mps 729 mmHg 65%
    11:00 +33°C° 0 mm 4 mps 729 mmHg 60%
    12:00 +34°C° 0 mm 3 mps 728 mmHg 57%
    13:00 +35°C° 0 mm 2 mps 728 mmHg 54%
    14:00 +35°C° 0 mm 2 mps 727 mmHg 51%
    15:00 +34°C° 0 mm 1 mps 727 mmHg 56%
    16:00 +33°C° 0 mm 1 mps 727 mmHg 61%
    17:00 +32°C° 0 mm 1 mps 727 mmHg 65%
    18:00 +31°C° 0 mm 1 mps 727 mmHg 67%
    19:00 +30°C° 0 mm 1 mps 727 mmHg 68%
    20:00 +29°C° 0 mm 1 mps 727 mmHg 70%
    21:00 +28°C° 0 mm 1 mps 727 mmHg 71%
    22:00 +28°C° 0 mm 1 mps 727 mmHg 73%
    23:00 +27°C° 0 mm 1 mps 727 mmHg 75%

    18 November, Sunday

    Time Temperature Precipitation Wind Pressure Humidity
    00:00 +27°C° 0.1 mm 1 mps 727 mmHg 77%
    01:00 +26°C° 0.1 mm 2 mps 726 mmHg 79%
    02:00 +26°C° 0.1 mm 2 mps 726 mmHg 81%
    03:00 +26°C° 0 mm 2 mps 726 mmHg 83%
    04:00 +25°C° 0 mm 2 mps 726 mmHg 84%
    05:00 +25°C° 0 mm 3 mps 726 mmHg 86%
    06:00 +27°C° 0.4 mm 3 mps 727 mmHg 82%
    07:00 +28°C° 0.4 mm 2 mps 727 mmHg 79%
    08:00 +30°C° 0.4 mm 2 mps 728 mmHg 75%
    09:00 +30°C° 3.2 mm 2 mps 728 mmHg 73%
    10:00 +30°C° 3.2 mm 1 mps 728 mmHg 70%
    11:00 +31°C° 3.2 mm 1 mps 727 mmHg 68%
    12:00 +30°C° 1.2 mm 1 mps 727 mmHg 71%
    13:00 +30°C° 1.2 mm 2 mps 727 mmHg 74%
    14:00 +29°C° 1.2 mm 2 mps 727 mmHg 77%
    15:00 +29°C° 0.2 mm 2 mps 726 mmHg 79%
    16:00 +28°C° 0.2 mm 2 mps 726 mmHg 81%
    17:00 +28°C° 0.2 mm 1 mps 726 mmHg 82%
    18:00 +27°C° 0 mm 1 mps 727 mmHg 84%
    19:00 +27°C° 0 mm 1 mps 727 mmHg 86%
    20:00 +26°C° 0 mm 1 mps 727 mmHg 88%
    21:00 +26°C° 0 mm 1 mps 727 mmHg 88%
    22:00 +25°C° 0 mm 1 mps 727 mmHg 89%
    23:00 +25°C° 0 mm 1 mps 727 mmHg 90%
    Show more